Location: Anjeux
(47.8815°N, 6.2076°E)
Time: 15:59:50
(UTC+00:00)

PAYLOAD A - Pass Details

Date: 05 March 2021
Orbit: 692 x 831 km, 98.4° (Epoch: 17 April)

Event Time Altitude Azimuth Distance (km) Brightness Sun altitude
Rises 03:08:23 0° 17° (NNE) 3,289 7.9 -30.2°
Reaches altitude 10° 03:10:43 10° 21° (NNE) 2,375 7.1 -29.8°
Maximum altitude 03:15:56 60° 101° (E) 931 4.5 -29.0°
Enters shadow 03:16:40 54° 136° (SE) 982 4.5 -28.9°
